Theta_e
355 362 361 358 363 364 365 364 358 357 359 365 365 367 370 363 364 364 362 367 366 356
345 345 340 344 346 341 347 342 344 349 350 352 356 366 368 362 366 368 365 361 366 360
347 349 349 348 343 343 344 348 347 347 345 347 351 355 362 360 364 368 361 361 364 365
337 340 342 340 344 343 345 348 348 349 349 347 348 350 352 358 357 359 361 367 365 363
329 331 331 337 335 336 339 341 343 345 346 347 348 349 348 346 345 349 352 358 360 361
324 324 324 325 328 329 331 332 333 338 341 343 345 346 347 348 345 344 344 348 354 361
323 324 323 325 327 327 328 328 329 331 336 338 341 342 345 346 346 345 342 342 347 353
325 326 325 325 325 326 326 326 327 329 328 330 332 331 339 342 345 345 344 344 342 340
324 324 324 325 325 325 325 326 328 326 326 327 324 323 325 328 330 336 338 338 340 340
324 323 323 324 323 322 324 326 326 327 328 328 329 323 322 325 328 331 333 336 337 337
323 323 323 323 323 324 323 323 323 323 326 327 326 322 320 321 326 326 328 330 334 336
323 323 322 321 320 321 319 321 323 322 322 322 323 319 318 320 323 323 325 327 331 333
325 324 323 322 322 322 319 321 319 315 316 316 316 317 315 317 321 321 321 324 326 324
327 327 327 325 323 322 320 319 311 311 313 314 315 316 314 314 318 317 318 320 321 326
Wind_Speed
12 6 3 6 5 3 4 4 9 11 11 10 10 10 10 11 11 12 11 13 12 11
5 4 6 7 5 4 3 6 4 8 9 10 10 10 9 9 11 12 12 13 12 13
7 4 4 4 6 7 5 6 10 12 12 11 11 11 10 10 10 11 11 11 13 11
7 8 8 9 7 7 9 9 11 11 12 12 12 12 11 10 12 13 12 12 13 14
7 9 10 9 12 13 10 12 13 13 13 13 13 12 13 13 13 13 14 14 13 15
9 9 11 12 13 13 14 15 16 14 14 15 15 15 14 14 14 14 15 15 15 14
8 9 11 12 13 14 14 16 16 17 17 17 17 17 17 16 15 15 15 16 16 15
8 9 10 9 12 13 14 15 17 17 18 18 18 17 17 16 16 15 15 14 14 16
9 10 11 12 13 14 15 15 15 17 18 19 16 23 24 21 19 20 18 17 16 16
7 9 10 11 13 15 16 16 16 17 18 19 19 21 19 21 18 19 19 20 18 17
10 12 13 14 15 16 17 17 17 18 19 20 18 22 19 20 19 20 22 23 22 21
10 11 13 14 15 15 17 18 18 18 20 22 22 26 22 19 18 20 23 21 23 23
12 13 13 14 14 14 16 17 16 21 20 25 24 26 26 23 16 20 18 21 23 30
13 13 13 13 12 15 16 16 17 19 18 22 23 23 27 26 18 17 17 17 16 16
Wind_Direction
17 357 312 22 0 321 324 316 343 339 324 314 294 283 282 279 262 244 245 241 248 264
58 32 356 344 323 1 304 333 330 312 312 315 304 292 265 272 275 280 264 252 241 239
327 22 306 315 331 337 303 347 316 307 307 308 307 304 304 289 273 275 271 276 273 267
339 348 328 325 337 319 328 319 298 296 296 295 296 297 296 287 284 278 278 272 271 271
340 347 326 341 338 331 320 313 301 303 297 289 285 284 283 284 293 287 274 271 270 269
343 343 337 332 330 326 316 310 305 298 293 294 293 286 279 274 277 275 276 281 279 266
339 342 337 335 325 317 318 312 307 304 303 299 293 283 280 276 267 268 269 266 265 276
346 346 333 316 318 316 315 303 299 295 292 291 288 282 281 280 276 266 267 263 266 266
353 343 334 330 327 319 306 300 295 293 291 286 282 285 296 301 293 292 277 275 270 266
354 352 346 335 326 322 312 306 305 298 290 286 284 279 276 284 286 283 276 272 269 267
346 344 337 329 325 324 320 311 306 298 294 293 289 281 271 265 269 268 267 267 270 268
319 317 318 328 325 323 319 311 305 304 300 291 286 284 280 272 271 267 263 261 257 255
308 306 312 312 313 320 320 314 320 307 298 291 285 278 268 264 265 263 261 261 260 254
299 299 296 291 312 314 313 320 315 305 298 296 285 278 267 259 258 259 263 263 263 260